Time,TemperatureF,DewpointF,PressureIn,WindDirection,WindDirectionDegrees,WindSpeedMPH,WindSpeedGustMPH,Humidity,HourlyPrecipIn,Conditions,Clouds,dailyrainin,SoftwareType,DateUTC
2013-02-15 00:02:00,32.0,29.0,30.07,NNW,327,0.0,3.0,90,0.00,,,0.00,,2013-02-15 05:02:00,
2013-02-15 00:12:00,32.0,29.0,30.07,NNW,327,0.0,3.0,90,0.00,,,0.00,,2013-02-15 05:12:00,
2013-02-15 00:22:00,31.0,29.0,30.07,NNW,327,0.0,0.0,91,0.00,,,0.00,,2013-02-15 05:22:00,
2013-02-15 00:32:00,31.0,29.0,30.07,NNW,327,0.0,2.0,92,0.00,,,0.00,,2013-02-15 05:32:00,
2013-02-15 00:42:00,31.0,29.0,30.07,NNW,327,0.0,2.0,92,0.00,,,0.00,,2013-02-15 05:42:00,
2013-02-15 00:52:00,31.0,29.0,30.07,NNW,327,0.0,0.0,92,0.00,,,0.00,,2013-02-15 05:52:00,
2013-02-15 01:02:00,30.0,28.0,30.08,NNW,327,0.0,0.0,93,0.00,,,0.00,,2013-02-15 06:02:00,
2013-02-15 01:11:00,30.0,28.0,30.08,NNW,327,0.0,0.0,93,0.00,,,0.00,,2013-02-15 06:11:00,
2013-02-15 01:22:00,30.0,28.0,30.07,NNW,327,0.0,0.0,93,0.00,,,0.00,,2013-02-15 06:22:00,
2013-02-15 01:32:00,30.0,28.0,30.07,NNW,327,0.0,0.0,93,0.00,,,0.00,,2013-02-15 06:32:00,
2013-02-15 01:42:00,30.0,28.0,30.07,NNW,327,0.0,0.0,93,0.00,,,0.00,,2013-02-15 06:42:00,
2013-02-15 01:52:00,29.0,27.0,30.07,NNW,327,0.0,0.0,93,0.00,,,0.00,,2013-02-15 06:52:00,
2013-02-15 02:01:00,29.0,27.0,30.07,NNW,327,0.0,0.0,93,0.00,,,0.00,,2013-02-15 07:01:00,
2013-02-15 02:11:00,29.0,27.0,30.07,NNW,327,0.0,0.0,93,0.00,,,0.00,,2013-02-15 07:11:00,
2013-02-15 02:21:00,29.0,27.0,30.07,NNW,327,0.0,0.0,93,0.00,,,0.00,,2013-02-15 07:21:00,
2013-02-15 02:32:00,28.0,27.0,30.07,NNW,327,0.0,0.0,94,0.00,,,0.00,,2013-02-15 07:32:00,
2013-02-15 02:42:00,28.0,27.0,30.07,NNW,327,0.0,0.0,94,0.00,,,0.00,,2013-02-15 07:42:00,
2013-02-15 02:52:00,28.0,27.0,30.07,NNW,327,0.0,0.0,94,0.00,,,0.00,,2013-02-15 07:52:00,
2013-02-15 03:01:00,28.0,27.0,30.07,NNW,327,0.0,0.0,94,0.00,,,0.00,,2013-02-15 08:01:00,
2013-02-15 03:11:00,28.0,27.0,30.07,NNW,327,0.0,0.0,94,0.00,,,0.00,,2013-02-15 08:11:00,
2013-02-15 03:21:00,28.0,27.0,30.07,NNW,327,0.0,0.0,94,0.00,,,0.00,,2013-02-15 08:21:00,
2013-02-15 03:32:00,28.0,27.0,30.07,NNW,327,0.0,0.0,95,0.00,,,0.00,,2013-02-15 08:32:00,
2013-02-15 03:42:00,28.0,27.0,30.07,NNW,327,0.0,0.0,95,0.00,,,0.00,,2013-02-15 08:42:00,
2013-02-15 03:52:00,28.0,27.0,30.08,NNW,327,0.0,0.0,95,0.00,,,0.00,,2013-02-15 08:52:00,
2013-02-15 04:02:00,28.0,27.0,30.08,NNW,327,0.0,0.0,95,0.00,,,0.00,,2013-02-15 09:02:00,
2013-02-15 04:12:00,28.0,27.0,30.08,NNW,327,0.0,0.0,95,0.00,,,0.00,,2013-02-15 09:12:00,
2013-02-15 04:22:00,28.0,27.0,30.07,NNW,327,0.0,0.0,95,0.00,,,0.00,,2013-02-15 09:22:00,
2013-02-15 04:32:00,27.0,26.0,30.07,NNW,327,0.0,0.0,95,0.00,,,0.00,,2013-02-15 09:32:00,
2013-02-15 04:42:00,27.0,26.0,30.07,NNW,327,0.0,0.0,95,0.00,,,0.00,,2013-02-15 09:42:00,
2013-02-15 04:52:00,27.0,26.0,30.07,NNW,327,0.0,0.0,95,0.00,,,0.00,,2013-02-15 09:52:00,
2013-02-15 05:01:00,27.0,26.0,30.07,NNW,327,0.0,0.0,95,0.00,,,0.00,,2013-02-15 10:01:00,
2013-02-15 05:11:00,27.0,26.0,30.07,NNW,327,0.0,0.0,95,0.00,,,0.00,,2013-02-15 10:11:00,
2013-02-15 05:21:00,27.0,26.0,30.07,NNW,327,0.0,0.0,95,0.00,,,0.00,,2013-02-15 10:21:00,
2013-02-15 05:32:00,27.0,26.0,30.08,NNW,327,0.0,0.0,95,0.00,,,0.00,,2013-02-15 10:32:00,
2013-02-15 05:42:00,27.0,26.0,30.08,NNW,327,0.0,0.0,95,0.00,,,0.00,,2013-02-15 10:42:00,
2013-02-15 05:52:00,27.0,26.0,30.08,NNW,327,0.0,0.0,95,0.00,,,0.00,,2013-02-15 10:52:00,
2013-02-15 06:01:00,26.0,25.0,30.08,NNW,327,0.0,0.0,95,0.00,,,0.00,,2013-02-15 11:01:00,
2013-02-15 06:11:00,26.0,25.0,30.08,NNW,327,0.0,0.0,95,0.00,,,0.00,,2013-02-15 11:11:00,
2013-02-15 06:23:00,26.0,25.0,30.09,NNW,327,0.0,0.0,95,0.00,,,0.00,,2013-02-15 11:23:00,
2013-02-15 06:32:00,26.0,25.0,30.10,NNW,327,0.0,1.0,95,0.00,,,0.00,,2013-02-15 11:32:00,
2013-02-15 06:42:00,26.0,25.0,30.10,NNW,327,0.0,1.0,95,0.00,,,0.00,,2013-02-15 11:42:00,
2013-02-15 06:52:00,26.0,25.0,30.10,NNW,327,0.0,0.0,95,0.00,,,0.00,,2013-02-15 11:52:00,
2013-02-15 07:02:00,26.0,25.0,30.10,NNW,327,0.0,0.0,95,0.00,,,0.00,,2013-02-15 12:02:00,
2013-02-15 07:11:00,26.0,25.0,30.10,NNW,327,0.0,0.0,95,0.00,,,0.00,,2013-02-15 12:11:00,
2013-02-15 07:22:00,26.0,25.0,30.11,NNW,327,0.0,0.0,95,0.00,,,0.00,,2013-02-15 12:22:00,
2013-02-15 07:32:00,26.0,25.0,30.11,NNW,327,0.0,0.0,95,0.00,,,0.00,,2013-02-15 12:32:00,
2013-02-15 07:42:00,26.0,25.0,30.11,NNW,327,0.0,0.0,95,0.00,,,0.00,,2013-02-15 12:42:00,
2013-02-15 07:52:00,26.0,25.0,30.11,NNW,327,0.0,0.0,95,0.00,,,0.00,,2013-02-15 12:52:00,
2013-02-15 08:02:00,26.0,25.0,30.12,NNW,327,0.0,0.0,95,0.00,,,0.00,,2013-02-15 13:02:00,
2013-02-15 08:11:00,26.0,25.0,30.12,NNW,327,0.0,0.0,95,0.00,,,0.00,,2013-02-15 13:11:00,
2013-02-15 08:22:00,26.0,25.0,30.12,NNW,327,0.0,0.0,95,0.00,,,0.00,,2013-02-15 13:22:00,
2013-02-15 08:32:00,26.0,25.0,30.13,NNW,327,0.0,0.0,95,0.00,,,0.00,,2013-02-15 13:32:00,
2013-02-15 08:42:00,26.0,25.0,30.13,NNW,327,0.0,0.0,95,0.00,,,0.00,,2013-02-15 13:42:00,
2013-02-15 08:52:00,26.0,25.0,30.14,NNW,327,0.0,0.0,96,0.00,,,0.00,,2013-02-15 13:52:00,
2013-02-15 09:01:00,26.0,25.0,30.14,NNW,327,0.0,0.0,96,0.00,,,0.00,,2013-02-15 14:01:00,
2013-02-15 09:12:00,26.0,25.0,30.14,NNW,327,0.0,0.0,96,0.00,,,0.00,,2013-02-15 14:12:00,
2013-02-15 09:21:00,26.0,25.0,30.13,NNW,327,0.0,0.0,96,0.00,,,0.00,,2013-02-15 14:21:00,
2013-02-15 09:32:00,27.0,26.0,30.13,NNW,327,0.0,0.0,96,0.00,,,0.00,,2013-02-15 14:32:00,
2013-02-15 09:42:00,27.0,26.0,30.13,NNW,327,0.0,0.0,96,0.00,,,0.00,,2013-02-15 14:42:00,
2013-02-15 09:52:00,27.0,26.0,30.13,NNW,327,0.0,0.0,96,0.00,,,0.00,,2013-02-15 14:52:00,
2013-02-15 10:02:00,28.0,27.0,30.12,NNW,327,0.0,0.0,97,0.00,,,0.00,,2013-02-15 15:02:00,
2013-02-15 10:22:00,29.0,29.0,30.11,NNW,327,0.0,0.0,98,0.00,,,0.00,,2013-02-15 15:22:00,
2013-02-15 10:32:00,31.0,31.0,30.11,NNW,327,0.0,0.0,98,0.00,,,0.00,,2013-02-15 15:32:00,
2013-02-15 10:52:00,32.0,32.0,30.11,NNW,327,0.0,0.0,98,0.00,,,0.00,,2013-02-15 15:52:00,
2013-02-15 11:02:00,33.0,32.0,30.10,NNW,327,0.0,1.0,98,0.00,,,0.00,,2013-02-15 16:02:00,
2013-02-15 11:22:00,35.0,34.0,30.10,NNW,327,0.0,1.0,98,0.00,,,0.00,,2013-02-15 16:22:00,
2013-02-15 11:32:00,37.0,36.0,30.10,NNW,327,0.0,0.0,98,0.00,,,0.00,,2013-02-15 16:32:00,
2013-02-15 11:52:00,39.0,37.0,30.09,NNW,327,0.0,0.0,93,0.00,,,0.00,,2013-02-15 16:52:00,
2013-02-15 12:01:00,41.0,37.0,30.09,NNW,327,0.0,1.0,87,0.00,,,0.00,,2013-02-15 17:01:00,
2013-02-15 12:11:00,43.0,38.0,30.08,NNW,327,0.0,1.0,82,0.00,,,0.00,,2013-02-15 17:11:00,
2013-02-15 12:21:00,43.0,38.0,30.08,NNW,327,0.0,1.0,82,0.00,,,0.00,,2013-02-15 17:21:00,
2013-02-15 12:32:00,46.0,38.0,30.07,NNW,327,0.0,3.0,74,0.00,,,0.00,,2013-02-15 17:32:00,
2013-02-15 12:42:00,46.0,38.0,30.07,NNW,327,0.0,3.0,74,0.00,,,0.00,,2013-02-15 17:42:00,
2013-02-15 12:52:00,48.0,36.0,30.06,North,5,0.0,3.0,62,0.00,,,0.00,,2013-02-15 17:52:00,
2013-02-15 13:02:00,50.0,34.0,30.05,ENE,61,0.0,5.0,55,0.00,,,0.00,,2013-02-15 18:02:00,
2013-02-15 13:12:00,50.0,34.0,30.05,ENE,61,0.0,5.0,55,0.00,,,0.00,,2013-02-15 18:12:00,
2013-02-15 13:21:00,52.0,34.0,30.05,NNW,333,0.0,5.0,50,0.00,,,0.00,,2013-02-15 18:21:00,
2013-02-15 13:32:00,54.0,34.0,30.04,NW,315,1.0,7.0,47,0.00,,,0.00,,2013-02-15 18:32:00,
2013-02-15 13:42:00,54.0,34.0,30.04,NW,315,1.0,7.0,47,0.00,,,0.00,,2013-02-15 18:42:00,
2013-02-15 13:52:00,54.0,34.0,30.03,NNW,344,1.0,5.0,47,0.00,,,0.00,,2013-02-15 18:52:00,
2013-02-15 14:02:00,54.0,34.0,30.03,NW,310,0.0,5.0,46,0.00,,,0.00,,2013-02-15 19:02:00,
2013-02-15 14:11:00,54.0,34.0,30.03,NW,310,0.0,5.0,46,0.00,,,0.00,,2013-02-15 19:11:00,
2013-02-15 14:22:00,53.0,37.0,30.02,NNW,338,0.0,4.0,54,0.00,,,0.00,,2013-02-15 19:22:00,
2013-02-15 14:32:00,53.0,37.0,30.02,NNW,333,0.0,3.0,55,0.00,,,0.00,,2013-02-15 19:32:00,
2013-02-15 14:42:00,53.0,37.0,30.02,NNW,333,0.0,3.0,55,0.00,,,0.00,,2013-02-15 19:42:00,
2013-02-15 14:52:00,53.0,36.0,30.01,NNE,20,0.0,3.0,52,0.00,,,0.00,,2013-02-15 19:52:00,
2013-02-15 15:02:00,52.0,35.0,30.00,NNW,340,0.0,3.0,53,0.00,,,0.00,,2013-02-15 20:02:00,
2013-02-15 15:11:00,52.0,35.0,30.00,NNW,340,0.0,3.0,53,0.00,,,0.00,,2013-02-15 20:11:00,
2013-02-15 15:21:00,52.0,35.0,30.00,NNW,333,0.0,4.0,53,0.00,,,0.00,,2013-02-15 20:21:00,
2013-02-15 15:32:00,52.0,33.0,30.00,NNW,331,0.0,5.0,48,0.00,,,0.00,,2013-02-15 20:32:00,
2013-02-15 15:42:00,52.0,33.0,30.00,NNW,331,0.0,5.0,48,0.00,,,0.00,,2013-02-15 20:42:00,
2013-02-15 15:52:00,52.0,33.0,30.00,NNW,331,0.0,5.0,48,0.00,,,0.00,,2013-02-15 20:52:00,
2013-02-15 16:02:00,52.0,35.0,29.99,NW,318,0.0,2.0,52,0.00,,,0.00,,2013-02-15 21:02:00,
2013-02-15 16:11:00,52.0,35.0,29.99,NW,318,0.0,2.0,52,0.00,,,0.00,,2013-02-15 21:11:00,
2013-02-15 16:22:00,52.0,36.0,29.99,ENE,57,1.0,8.0,55,0.00,,,0.00,,2013-02-15 21:22:00,
2013-02-15 16:32:00,51.0,39.0,29.99,NNE,32,0.0,4.0,63,0.00,,,0.00,,2013-02-15 21:32:00,
2013-02-15 16:42:00,51.0,39.0,29.99,NNE,32,0.0,4.0,63,0.00,,,0.00,,2013-02-15 21:42:00,
2013-02-15 16:52:00,51.0,39.0,29.99,NNE,32,0.0,4.0,63,0.00,,,0.00,,2013-02-15 21:52:00,
2013-02-15 17:02:00,50.0,39.0,30.01,North,5,0.0,3.0,67,0.00,,,0.00,,2013-02-15 22:02:00,
2013-02-15 17:11:00,50.0,39.0,30.01,North,5,0.0,3.0,67,0.00,,,0.00,,2013-02-15 22:11:00,
2013-02-15 17:22:00,48.0,41.0,30.02,NNW,338,0.0,3.0,78,0.01,,,0.01,,2013-02-15 22:22:00,
2013-02-15 17:32:00,46.0,41.0,30.02,NNW,332,0.0,1.0,84,0.04,,,0.04,,2013-02-15 22:32:00,
2013-02-15 17:42:00,46.0,41.0,30.02,NNW,332,0.0,1.0,84,0.04,,,0.04,,2013-02-15 22:42:00,
2013-02-15 17:52:00,45.0,42.0,30.01,NNW,332,0.0,0.0,89,0.05,,,0.05,,2013-02-15 22:52:00,
2013-02-15 18:02:00,44.0,42.0,30.02,NNW,332,1.0,3.0,91,0.06,,,0.06,,2013-02-15 23:02:00,
2013-02-15 18:11:00,44.0,42.0,30.02,NNW,332,1.0,3.0,91,0.06,,,0.06,,2013-02-15 23:11:00,
2013-02-15 18:21:00,43.0,41.0,30.02,NNW,332,0.0,0.0,94,0.07,,,0.08,,2013-02-15 23:21:00,
2013-02-15 18:32:00,43.0,41.0,30.03,NNW,332,0.0,1.0,93,0.04,,,0.08,,2013-02-15 23:32:00,
2013-02-15 18:42:00,43.0,41.0,30.03,NNW,332,0.0,1.0,93,0.04,,,0.08,,2013-02-15 23:42:00,
2013-02-15 18:52:00,42.0,40.0,30.03,North,355,0.0,2.0,93,0.03,,,0.08,,2013-02-15 23:52:00,
2013-02-15 19:02:00,42.0,40.0,30.04,ENE,65,0.0,2.0,91,0.02,,,0.08,,2013-02-16 00:02:00,
2013-02-15 19:11:00,42.0,40.0,30.04,ENE,65,0.0,2.0,91,0.02,,,0.08,,2013-02-16 00:11:00,
2013-02-15 19:22:00,41.0,39.0,30.05,NE,35,0.0,1.0,92,0.00,,,0.08,,2013-02-16 00:22:00,
2013-02-15 19:32:00,40.0,37.0,30.05,NE,35,0.0,1.0,90,0.00,,,0.08,,2013-02-16 00:32:00,
2013-02-15 19:42:00,40.0,37.0,30.05,NE,35,0.0,1.0,90,0.00,,,0.08,,2013-02-16 00:42:00,
2013-02-15 19:51:00,40.0,37.0,30.06,NE,35,0.0,1.0,90,0.00,,,0.08,,2013-02-16 00:51:00,
2013-02-15 20:02:00,40.0,38.0,30.06,NNE,31,0.0,1.0,91,0.00,,,0.08,,2013-02-16 01:02:00,
2013-02-15 20:11:00,40.0,38.0,30.06,NNE,31,0.0,1.0,91,0.00,,,0.08,,2013-02-16 01:11:00,
2013-02-15 20:21:00,39.0,37.0,30.06,North,11,0.0,3.0,91,0.00,,,0.08,,2013-02-16 01:21:00,
2013-02-15 20:32:00,39.0,37.0,30.06,North,11,0.0,1.0,92,0.00,,,0.08,,2013-02-16 01:32:00,
2013-02-15 20:42:00,39.0,37.0,30.06,North,11,0.0,1.0,92,0.00,,,0.08,,2013-02-16 01:42:00,
2013-02-15 20:52:00,39.0,37.0,30.06,NNW,340,0.0,1.0,92,0.00,,,0.08,,2013-02-16 01:52:00,
2013-02-15 21:01:00,38.0,36.0,30.06,NNW,342,0.0,1.0,92,0.00,,,0.08,,2013-02-16 02:01:00,
2013-02-15 21:11:00,38.0,36.0,30.06,NNW,342,0.0,1.0,92,0.00,,,0.08,,2013-02-16 02:11:00,
2013-02-15 21:22:00,38.0,36.0,30.06,NNW,342,0.0,1.0,93,0.00,,,0.08,,2013-02-16 02:22:00,
2013-02-15 21:32:00,38.0,36.0,30.06,North,5,0.0,1.0,93,0.00,,,0.08,,2013-02-16 02:32:00,
2013-02-15 21:42:00,38.0,36.0,30.06,North,5,0.0,1.0,93,0.00,,,0.08,,2013-02-16 02:42:00,
2013-02-15 21:52:00,38.0,36.0,30.06,North,5,0.0,1.0,93,0.00,,,0.08,,2013-02-16 02:52:00,
2013-02-15 22:02:00,37.0,35.0,30.06,NW,311,0.0,2.0,93,0.00,,,0.08,,2013-02-16 03:02:00,
2013-02-15 22:11:00,37.0,35.0,30.06,NW,311,0.0,2.0,93,0.00,,,0.08,,2013-02-16 03:11:00,
2013-02-15 22:21:00,37.0,35.0,30.06,NW,312,0.0,1.0,93,0.00,,,0.08,,2013-02-16 03:21:00,
2013-02-15 22:32:00,37.0,35.0,30.06,NW,312,0.0,1.0,92,0.00,,,0.08,,2013-02-16 03:32:00,
2013-02-15 22:42:00,37.0,35.0,30.06,NW,312,0.0,1.0,92,0.00,,,0.08,,2013-02-16 03:42:00,
2013-02-15 22:52:00,37.0,35.0,30.05,NW,312,0.0,1.0,92,0.00,,,0.08,,2013-02-16 03:52:00,
2013-02-15 23:01:00,37.0,34.0,30.05,NW,312,0.0,1.0,90,0.00,,,0.08,,2013-02-16 04:01:00,
2013-02-15 23:11:00,37.0,34.0,30.05,NW,312,0.0,1.0,90,0.00,,,0.08,,2013-02-16 04:11:00,
2013-02-15 23:21:00,37.0,34.0,30.05,NW,312,0.0,0.0,89,0.00,,,0.08,,2013-02-16 04:21:00,
2013-02-15 23:32:00,36.0,33.0,30.05,NW,313,0.0,0.0,87,0.00,,,0.08,,2013-02-16 04:32:00,
2013-02-15 23:42:00,36.0,33.0,30.05,NW,313,0.0,0.0,87,0.00,,,0.08,,2013-02-16 04:42:00,
2013-02-15 23:51:00,36.0,33.0,30.04,NW,313,0.0,0.0,87,0.00,,,0.08,,2013-02-16 04:51:00,